COSMOS 249 DEB *, 3790

Orbit data source: Space-Track

COSMOS 249 DEB *, 3790 is space debris in LEO originally from a launch on Sun, 20 Oct 1968 UTC launched from the Tyuratam Missile And Space Complex (TTMTR). Debris objects in space refer to the collection of defunct objects orbiting the Earth. Examples of debris include non-operational satellites, rocket bodies, and fragments generated from explosions, collisions, or faulty payload assembly.

Loading next visibility...
Identifier
3790, 1968-091AX
Orbit
LEO
Country
Flag of CISCIS
Related business
Manufacturer
Unknown
Mission
Spacecraft
Bus & Motor
Unknown
Mass
Unknown
Launch date (UTC)
1968-10-20 (58 years ago)
Launch vehicle
Unknown
Launch site
Tyuratam Missile And Space Complex (TTMTR)
Object type
Payload
Rocket body
Debris
Shape & HBR
Unknown shape, 0.1 m
Radar Cross Section
Medium (>0.1 m² and <1 m²)

Expand to show TLE details & history
Last TLE update: 18 hours ago

TLE from 18 hours ago
0 COSMOS 249 DEB *
1 03790U 68091AX  26235.70940222  .00000544  00000-0  25187-3 0  9996
2 03790  62.9932 133.2869 0716677 322.2609  33.0130 13.40794816776533
Epoch: 2026-08-23T17:01Z
TLE epoch observation values (Epoch: 2026-08-23T17:01:32.351Z)
Latitude
-0.00002°
Longitude
-94.09947°
Altitude
670.766 km
Speed
7.739 km/s
True Right ascension
08h 53m 08s
True Declination
0° 00' 00"
Sunlit
Object was in daylight at epoch
Visualization orbit readout
Latitude
Unknown
Longitude
Unknown
Altitude
Unknown
Speed
Unknown
Apparent Right ascension
Unknown
Apparent Declination
Unknown
Sunlit
N/A
Visualization observer readout
Local Sidereal Time
02:28:43
Azimuth
Unknown
Elevation
Unknown
Doppler factor
Unknown
Orbital elements
Apogee altitude
1,641.507 km
Perigee altitude
568.881 km
Semi-major axis
7,483.331 km
Eccentricity
0.07167
Inclination
62.9932°
RAAN
133.2869°
Arg. of periapsis
322.2609°
True anomaly
37.84376°
Mean anomaly
33.013°
Eccentric anomaly
35.39116°
Mean motion
3.35275 °/min
Orbital period
107.37 mins
BSTAR
0.00025187
Loading maneuver chart data...
Computing Atmospheric mass density...
Loading historical data...
Loading historical data...
Loading historical data...
Loading historical data...
Loading historical data...
Loading historical data...
Loading historical data...

Documentation

Showing up to 5 results
|